RYR7JD LATI-LHBP

Flight info

Callsign RYR7JD
Flight time 1h 11m
Altitude 36000
Route RINAV DCT ALELU DCT VAL DCT PARAK DCT KEZAL
Aircraft B738/M-SDE2E3FGHIRWXY/LB1

Departure

Time 2026-05-04 08:19
Airport Tirana International Airport Mother Teresa (LATI)

Arrival

Time 2026-05-04 09:31
Airport Budapest Liszt Ferenc International Airport (LHBP)
Time Latitude Longitude Altitude Speed Heading
2026-05-04 08:02 41.42067 19.71490 131 ft 0 kts 264°
2026-05-04 08:12 41.42070 19.71521 125 ft 4 kts 270°
2026-05-04 08:12 41.42063 19.71550 126 ft 4 kts 322°
2026-05-04 08:12 41.42041 19.71562 125 ft 2 kts 354°
2026-05-04 08:12 41.42036 19.71563 125 ft 0 kts 354°
2026-05-04 08:16 41.42309 19.71527 131 ft 13 kts 355°
2026-05-04 08:16 41.42412 19.71515 129 ft 16 kts 355°
2026-05-04 08:16 41.42518 19.71502 128 ft 15 kts 355°
2026-05-04 08:17 41.42616 19.71489 128 ft 12 kts 357°
2026-05-04 08:17 41.42667 19.71546 129 ft 10 kts 68°
2026-05-04 08:17 41.42677 19.71637 130 ft 10 kts 84°
2026-05-04 08:17 41.42684 19.71734 127 ft 11 kts 84°
2026-05-04 08:19 41.38352 19.72460 1837 ft 174 kts 173°
2026-05-04 08:19 41.37105 19.72635 2433 ft 193 kts 174°
2026-05-04 08:20 41.35689 19.72831 2673 ft 220 kts 174°
2026-05-04 08:20 41.34074 19.73052 2980 ft 237 kts 174°
2026-05-04 08:20 41.32396 19.73276 3496 ft 250 kts 173°
2026-05-04 08:20 41.30616 19.73494 3891 ft 268 kts 175°
2026-05-04 08:21 41.28732 19.73731 4749 ft 272 kts 174°
2026-05-04 08:21 41.26840 19.73978 5647 ft 277 kts 177°
2026-05-04 08:21 41.24931 19.73563 6364 ft 283 kts 205°
2026-05-04 08:21 41.23379 19.71993 7157 ft 283 kts 233°
2026-05-04 08:22 41.22508 19.69668 7866 ft 284 kts 261°
2026-05-04 08:22 41.22508 19.67078 8627 ft 282 kts 288°
2026-05-04 08:24 41.35813 19.64274 12022 ft 345 kts
2026-05-04 08:24 41.38196 19.64737 12786 ft 346 kts
2026-05-04 08:24 41.40585 19.65193 13546 ft 348 kts
2026-05-04 08:24 41.42989 19.65645 14286 ft 350 kts
2026-05-04 08:25 41.45419 19.66096 14957 ft 354 kts
2026-05-04 08:25 41.47868 19.66547 15653 ft 357 kts
2026-05-04 08:25 41.50337 19.67001 16339 ft 360 kts
2026-05-04 08:25 41.52830 19.67458 17012 ft 363 kts
2026-05-04 08:26 41.55341 19.67917 17683 ft 366 kts
2026-05-04 08:27 41.73470 19.71243 21670 ft 386 kts
2026-05-04 08:28 41.76148 19.71736 22180 ft 389 kts
2026-05-04 08:28 41.78841 19.72231 22702 ft 392 kts
2026-05-04 08:28 41.81546 19.72730 23171 ft 394 kts
2026-05-04 08:28 41.84274 19.73233 23669 ft 397 kts
2026-05-04 08:29 41.87025 19.73741 24111 ft 399 kts
2026-05-04 08:29 41.89781 19.74250 24525 ft 400 kts
2026-05-04 08:29 41.92544 19.74762 24952 ft 402 kts
2026-05-04 08:31 42.12281 19.78425 27519 ft 417 kts
2026-05-04 08:33 42.32601 19.82225 30317 ft 417 kts
2026-05-04 08:33 42.35449 19.82759 30649 ft 417 kts
2026-05-04 08:35 42.55571 19.85258 33062 ft 411 kts 359°
2026-05-04 08:35 42.58444 19.85273 33403 ft 411 kts 359°
2026-05-04 08:35 42.61314 19.85292 33756 ft 411 kts 359°
2026-05-04 08:35 42.64167 19.85317 34114 ft 410 kts 359°
2026-05-04 08:37 42.80333 19.85511 35445 ft 412 kts 359°
2026-05-04 08:37 42.83216 19.85547 35639 ft 413 kts 359°
2026-05-04 08:37 42.86093 19.85584 35857 ft 413 kts 359°
2026-05-04 08:38 42.88971 19.85621 36081 ft 413 kts 359°
2026-05-04 08:38 42.94711 19.85695 36187 ft 415 kts 359°
2026-05-04 08:40 43.17615 19.85990 36198 ft 410 kts 359°
2026-05-04 08:41 43.23325 19.86063 36197 ft 410 kts 359°
2026-05-04 08:41 43.29041 19.86137 36199 ft 412 kts 359°
2026-05-04 08:42 43.34787 19.86212 36197 ft 414 kts 359°
2026-05-04 08:42 43.40569 19.86287 36200 ft 416 kts 359°
2026-05-04 08:43 43.46351 19.86362 36195 ft 418 kts 359°
2026-05-04 08:43 43.52182 19.86438 36194 ft 419 kts 359°
2026-05-04 08:44 43.58003 19.86514 36191 ft 420 kts 359°
2026-05-04 08:46 43.81365 19.86821 36192 ft 418 kts 360°
2026-05-04 08:46 43.87190 19.86898 36194 ft 417 kts 360°
2026-05-04 08:47 43.92993 19.86975 36193 ft 416 kts 360°
2026-05-04 08:47 43.98783 19.87052 36185 ft 415 kts 360°
2026-05-04 08:48 44.04530 19.87128 36189 ft 415 kts 360°
2026-05-04 08:48 44.10316 19.87205 36190 ft 416 kts 360°
2026-05-04 08:49 44.16122 19.87282 36191 ft 417 kts 360°
2026-05-04 08:50 44.36488 19.87831 36189 ft 420 kts
2026-05-04 08:51 44.42289 19.88544 36186 ft 421 kts
2026-05-04 08:51 44.48133 19.89285 36180 ft 421 kts
2026-05-04 08:52 44.53981 19.89991 36180 ft 421 kts
2026-05-04 08:52 44.59826 19.90676 36176 ft 422 kts
2026-05-04 08:54 44.83163 19.93400 36182 ft 421 kts
2026-05-04 08:55 44.89006 19.94086 36181 ft 420 kts
2026-05-04 08:55 44.94809 19.94768 36185 ft 420 kts
2026-05-04 09:01 45.56204 20.02148 35601 ft 421 kts
2026-05-04 09:01 45.59117 20.02523 35801 ft 420 kts
2026-05-04 09:01 45.62028 20.02898 35991 ft 420 kts
2026-05-04 09:01 45.64938 20.03272 36166 ft 421 kts
2026-05-04 09:02 45.67876 20.03650 36163 ft 425 kts
2026-05-04 09:02 45.73803 20.04411 36177 ft 427 kts
2026-05-04 09:03 45.79671 20.05167 36176 ft 425 kts
2026-05-04 09:03 45.85553 20.05926 36174 ft 423 kts
2026-05-04 09:04 45.91408 20.06682 36179 ft 422 kts
2026-05-04 09:04 45.97247 20.07439 36183 ft 421 kts
2026-05-04 09:05 46.03099 20.08198 36177 ft 422 kts
2026-05-04 09:05 46.08962 20.08961 36185 ft 423 kts
2026-05-04 09:06 46.14796 20.09722 36185 ft 424 kts
2026-05-04 09:08 46.38473 20.12825 36174 ft 429 kts
2026-05-04 09:08 46.44375 20.13603 36167 ft 424 kts
2026-05-04 09:08 46.47263 20.13985 36158 ft 408 kts
2026-05-04 09:09 46.50046 20.14353 36154 ft 394 kts
2026-05-04 09:09 46.52730 20.14709 36160 ft 381 kts
2026-05-04 09:09 46.55324 20.15052 36152 ft 368 kts
2026-05-04 09:09 46.57838 20.15386 36002 ft 360 kts
2026-05-04 09:10 46.60319 20.15715 35670 ft 357 kts
2026-05-04 09:10 46.62799 20.16043 35212 ft 357 kts
2026-05-04 09:10 46.65271 20.16341 34445 ft 367 kts
2026-05-04 09:10 46.67866 20.15978 33282 ft 384 kts 347°
2026-05-04 09:11 46.70458 20.14718 31982 ft 404 kts 336°
2026-05-04 09:11 46.72998 20.12732 30669 ft 423 kts 332°
2026-05-04 09:11 46.75569 20.10533 29685 ft 431 kts 331°
2026-05-04 09:11 46.78132 20.08299 29055 ft 427 kts 331°
2026-05-04 09:12 46.80674 20.06085 28548 ft 421 kts 331°
2026-05-04 09:12 46.83147 20.03945 28012 ft 416 kts 331°
2026-05-04 09:14 47.00260 19.89312 24109 ft 399 kts 331°
2026-05-04 09:14 47.02653 19.87263 23561 ft 397 kts 331°
2026-05-04 09:14 47.05032 19.85222 22970 ft 395 kts 331°
2026-05-04 09:14 47.07397 19.83192 22416 ft 392 kts 331°
2026-05-04 09:15 47.09745 19.81173 21871 ft 390 kts 331°
2026-05-04 09:15 47.12080 19.79164 21335 ft 387 kts 331°
2026-05-04 09:15 47.14404 19.77163 20808 ft 385 kts 331°
2026-05-04 09:15 47.16680 19.75200 20306 ft 383 kts 331°
2026-05-04 09:17 47.34678 19.59578 16292 ft 368 kts 327°
2026-05-04 09:18 47.36524 19.57100 15773 ft 369 kts 314°
2026-05-04 09:18 47.38227 19.54329 15227 ft 361 kts 312°
2026-05-04 09:18 47.39892 19.51572 14511 ft 359 kts 312°
2026-05-04 09:18 47.41538 19.48866 14144 ft 346 kts 312°
2026-05-04 09:19 47.43112 19.46292 14006 ft 328 kts 312°
2026-05-04 09:19 47.44622 19.43842 13681 ft 318 kts 312°
2026-05-04 09:19 47.46094 19.41463 13356 ft 308 kts 312°
2026-05-04 09:19 47.47520 19.39162 13018 ft 300 kts 312°
2026-05-04 09:20 47.48903 19.36933 12590 ft 296 kts 312°
2026-05-04 09:20 47.50298 19.34682 12061 ft 297 kts 312°
2026-05-04 09:20 47.51682 19.32447 11645 ft 294 kts 312°
2026-05-04 09:20 47.53063 19.30216 11153 ft 294 kts 312°
2026-05-04 09:21 47.54439 19.27987 10717 ft 293 kts 312°
2026-05-04 09:21 47.55812 19.25762 10287 ft 291 kts 312°
2026-05-04 09:21 47.57172 19.23558 9847 ft 289 kts 311°
2026-05-04 09:21 47.58530 19.21355 9373 ft 288 kts 311°
2026-05-04 09:22 47.59864 19.19191 9042 ft 282 kts 310°
2026-05-04 09:22 47.61190 19.17040 8550 ft 282 kts 310°
2026-05-04 09:22 47.62496 19.14908 8187 ft 277 kts 310°
2026-05-04 09:22 47.63793 19.12796 7752 ft 275 kts 310°
2026-05-04 09:23 47.65074 19.10712 7372 ft 272 kts 310°
2026-05-04 09:23 47.66337 19.08654 6992 ft 268 kts 310°
2026-05-04 09:23 47.67572 19.06629 6738 ft 260 kts 306°
2026-05-04 09:23 47.68259 19.04316 6568 ft 239 kts 270°
2026-05-04 09:25 47.60931 18.97326 4870 ft 198 kts 163°
2026-05-04 09:25 47.59836 18.98470 4695 ft 194 kts 144°
2026-05-04 09:26 47.58830 18.99760 4474 ft 191 kts 142°
2026-05-04 09:26 47.57873 19.01134 4224 ft 192 kts 139°
2026-05-04 09:26 47.56950 19.02569 3952 ft 193 kts 137°
2026-05-04 09:26 47.56045 19.04024 3713 ft 191 kts 137°
2026-05-04 09:27 47.55145 19.05479 3433 ft 192 kts 137°
2026-05-04 09:27 47.54265 19.06900 3239 ft 188 kts 137°
2026-05-04 09:27 47.53655 19.07879 3026 ft 193 kts 136°
2026-05-04 09:27 47.52452 19.09818 2685 ft 194 kts 135°
2026-05-04 09:28 47.51554 19.11302 2431 ft 195 kts 136°
2026-05-04 09:28 47.50639 19.12753 2163 ft 188 kts 136°
2026-05-04 09:28 47.50048 19.13685 2021 ft 180 kts 135°
2026-05-04 09:28 47.49007 19.15405 1719 ft 159 kts 135°
2026-05-04 09:29 47.48527 19.16178 1543 ft 149 kts 136°
2026-05-04 09:29 47.47841 19.17286 1308 ft 149 kts 134°
2026-05-04 09:29 47.47163 19.18423 1247 ft 147 kts 135°
2026-05-04 09:29 47.46470 19.19534 1015 ft 144 kts 137°
2026-05-04 09:30 47.45783 19.20627 733 ft 147 kts 137°
2026-05-04 09:30 47.45090 19.21722 541 ft 143 kts 135°
2026-05-04 09:30 47.44441 19.22777 454 ft 130 kts 136°
2026-05-04 09:30 47.43923 19.23612 455 ft 85 kts 132°
2026-05-04 09:31 47.43704 19.24070 453 ft 43 kts 110°
2026-05-04 09:31 47.43626 19.24460 456 ft 34 kts 117°
2026-05-04 09:31 47.43493 19.24709 456 ft 30 kts 133°
2026-05-04 09:31 47.43360 19.24925 456 ft 25 kts 133°
2026-05-04 09:32 47.43309 19.25088 456 ft 17 kts 79°
2026-05-04 09:32 47.43383 19.25224 456 ft 18 kts 42°
2026-05-04 09:34 47.43892 19.26251 457 ft 19 kts 133°
2026-05-04 09:34 47.43791 19.26412 456 ft 25 kts 132°
2026-05-04 09:34 47.43666 19.26616 457 ft 28 kts 132°
2026-05-04 09:34 47.43541 19.26818 457 ft 26 kts 132°
2026-05-04 09:35 47.43424 19.27007 457 ft 22 kts 132°
2026-05-04 09:35 47.43335 19.27098 457 ft 13 kts 200°
2026-05-04 09:35 47.43297 19.26978 455 ft 13 kts 261°
2026-05-04 09:35 47.43343 19.26873 457 ft 13 kts 315°
2026-05-04 09:37 47.43397 19.26661 457 ft 0 kts 222°